Flag for Germany Weather past 2 weeks in Paderborn, North Rhine-Westphalia, Germany

Now
48 °F

Rain. Fog.


Feels Like: 48 °F
Forecast: 34 / 50 °F
Wind: 1 mph from North

Location: Paderborn / Lippstadt

Current Time: Apr 27, 2015 at 4:17:06 AM

Latest Report: Apr 27, 2015 at 3:50 AM


Visibility: 3 mi

Pressure: 29.62 "Hg

Humidity: 100%

Dew point: 48 °F

Location of PaderbornLocation

Historic Weather in Paderborn — Graph

°F

Paderborn temperature yesterday

Maximum temperature yesterday: 59 °F (at 12:50 PM)
Minimum temperature yesterday: 50 °F (at 12:50 AM)
Average temperature yesterday: 53 °F

Past Weeks' High & Low Weather Summary

 TemperatureHumidityPressure
High70 °F (Apr 15, 2:20 PM)100% (Apr 26, 10:50 PM)30.45 "Hg (Apr 26, 10:50 PM)
Low28 °F (Apr 19, 6:50 AM)21% (Apr 21, 4:50 PM)29.62 "Hg (Apr 27, 2:20 AM)
Average49 °F62%30.13 "Hg
* Reported Apr 12 2:20 AM — Apr 27 2:50 AM, Paderborn, Weather by CustomWeather, © 2015

Note: Actual official high and low records may vary slightly from our data, if they occured in-between our weather recording intervals... More about our weather records

Advertising

Paderborn weather history for previous 24 hours

 ConditionsComfort  
Time TempWeatherWind HumidityBarometerVisibility
2:50 AM
Mon, Apr 27
48 °FRain. Fog.3 mph100%29.62 "Hg3 mi
2:20 AM50 °FRain. Fog.2 mph94%29.62 "Hg3 mi
1:50 AM48 °FRain. Fog.2 mph100%29.65 "Hg3 mi
1:20 AM50 °FLight rain. Passing clouds.1 mph94%29.65 "HgN/A
12:50 AM50 °FLight rain. Passing clouds.1 mph94%29.65 "HgN/A
12:20 AM50 °FPartly cloudy.2 mph94%29.65 "HgN/A
11:50 PM
Sun, Apr 26
50 °FPartly cloudy.2 mph94%29.65 "HgN/A
11:20 PM50 °FPartly cloudy.3 mph94%29.68 "HgN/A
10:50 PM50 °FPartly cloudy.3 mph100%29.68 "HgN/A
10:20 PM52 °FPartly cloudy.2 mph94%29.68 "HgN/A
9:50 PM52 °FClear.5 mph94%29.68 "Hg10 mi
9:20 PM52 °FSunny.6 mph94%29.68 "Hg10 mi
8:50 PM52 °FSunny.1 mph94%29.68 "Hg10 mi
8:20 PM54 °FSunny.2 mph88%29.68 "Hg10 mi
7:50 PM54 °FSunny.1 mph88%29.68 "Hg10 mi
7:20 PM55 °FSunny.3 mph82%29.68 "Hg10 mi
6:50 PM55 °FPassing clouds.3 mph77%29.68 "HgN/A
6:20 PM54 °FPassing clouds.1 mph88%29.68 "HgN/A
5:50 PM54 °FScattered showers. Partly sunny.3 mph88%29.68 "HgN/A
5:20 PM54 °FSprinkles. Partly sunny.6 mph88%29.71 "Hg5 mi
4:50 PM57 °FScattered showers. Broken clouds.6 mph77%29.68 "HgN/A
4:20 PM59 °FBroken clouds.5 mph72%29.68 "HgN/A
3:50 PM57 °FScattered showers. Scattered clouds.5 mph77%29.71 "HgN/A
3:20 PM57 °FLight rain. Scattered clouds.2 mph77%29.71 "HgN/A
2:50 PM57 °FScattered clouds.6 mph72%29.71 "HgN/A
2:20 PM57 °FSprinkles. Scattered clouds.5 mph72%29.71 "HgN/A
1:50 PM57 °FSprinkles. Scattered clouds.3 mph72%29.74 "HgN/A
1:20 PM55 °FSprinkles. Scattered clouds.10 mph77%29.74 "HgN/A
12:50 PM59 °FScattered clouds.12 mph63%29.74 "HgN/A
12:20 PM57 °FScattered clouds.13 mph72%29.74 "HgN/A
11:50 AM57 °FScattered clouds.13 mph67%29.74 "HgN/A
11:20 AM55 °FScattered clouds.17 mph72%29.74 "HgN/A
10:50 AM55 °FScattered clouds.12 mph72%29.74 "HgN/A
10:20 AM55 °FScattered clouds.13 mph77%29.74 "HgN/A
9:50 AM55 °FScattered clouds.10 mph77%29.74 "HgN/A
9:20 AM55 °FScattered clouds.9 mph77%29.74 "HgN/A
8:50 AM52 °FPartly sunny.8 mph88%29.74 "HgN/A
8:20 AM52 °FPartly sunny.8 mph88%29.74 "HgN/A
7:50 AM52 °FSunny.5 mph88%29.74 "Hg10 mi
7:20 AM50 °FSunny.2 mph94%29.74 "Hg10 mi
6:50 AM50 °FPassing clouds.1 mph94%29.74 "HgN/A
6:20 AM50 °FLight rain. Passing clouds.5 mph94%29.74 "HgN/A
5:50 AM50 °FLight rain. Partly cloudy.5 mph88%29.74 "HgN/A
5:20 AM50 °FPassing clouds.8 mph88%29.74 "HgN/A
4:50 AM50 °FPassing clouds.8 mph88%29.74 "HgN/A
4:20 AM50 °FPassing clouds.9 mph88%29.74 "HgN/A
Weather by CustomWeather, © 2015

See weather overviewHow to use our weather pages